User: anonymous   Login
Location: *
(32.8140°S, 174.6161°E)
Time: 06:41:19
(UTC+00:00)
Language:

Cosmos 2237 - Orbit

View from above orbital plane
View from above orbital plane
View from above satellite
View from above satellite

Ground track
Ground track

The orbit data is extracted from the following two-line orbital elements,

1 22565U 93016A   20049.58234509 +.00000028 +00000-0 +41604-4 0  9999
2 22565 070.8267 149.7006 0003408 123.0353 237.1095 14.12385690387083
Epoch (UTC): 18 February 2020 13:58:34
Eccentricity: 0.0003408
inclination: 70.8267°
perigee height: 849 km
apogee height: 853 km
right ascension of ascending node: 149.7006°
argument of perigee: 123.0353°
revolutions per day: 14.12385690
mean anomaly at epoch: 237.1095°
orbit number at epoch: 38708

The dashed part of the orbit path shows where the satellite is in the earth's shadow,  

DLR